Location: Edinburgh
(55.9500°N, 3.1600°W)
Time: 15:21:01
(UTC+00:00)

Envisat - Pass Details

Date: 13 October 2017
Orbit: 764 x 766 km, 98.2° (Epoch: 10 December)

Event Time Altitude Azimuth Distance (km) Brightness Sun altitude
Exits shadow 19:16:05 - 114° (ESE) 2,432 5.0 -9.1°
Reaches altitude 10° 19:16:27 10° 112° (ESE) 2,309 4.9 -9.1°
Maximum altitude 19:20:40 27° 56° (NE) 1,452 4.0 -9.7°
Drops below altitude 10° 19:24:53 10° 0° (N) 2,321 5.5 -10.3°
Sets 19:27:29 0° 349° (N) 3,251 6.4 -10.7°
